INTELSAT 33E DEB, 61996

Orbit data source: Space-Track

INTELSAT 33E DEB, 61996 is space debris in GEO originally from a launch on Wed, 24 Aug 2016 UTC launched from the French Guiana (FRGUI). Debris objects in space refer to the collection of defunct objects orbiting the Earth. Examples of debris include non-operational satellites, rocket bodies, and fragments generated from explosions, collisions, or faulty payload assembly.

Not visible in the next 10 days
Identifier
61996, 2016-053N
Orbit
GEO
Country
Flag of UnknownUnknown / ITSO
Related business
Manufacturer
Boeing/ES
Mission
Spacecraft
Bus & Motor
Unknown
Mass
Unknown
Launch date (UTC)
2016-08-24 (9 years ago)
Launch vehicle
Unknown
Launch site
French Guiana (FRGUI)
Object type
Payload
Rocket body
Debris
Shape & HBR
Unknown shape, 1.1 m
Radar Cross Section
RCS unknown

Expand to show TLE details & history
Last TLE update: 22 hours ago

TLE from 22 hours ago
0 INTELSAT 33E DEB
1 61996U 16053N   25291.54385423 -.00000249  00000-0  00000-0 0  9995
2 61996   0.8513  59.3542 0038216 341.2122 319.7391  1.00597049  3677
Epoch: 2025-10-18T13:03Z
TLE epoch observation values (Epoch: 2025-10-18T13:03:09.005Z)
Latitude
-0.71822°
Longitude
136.94184°
Altitude
35,572.053 km
Speed
3.087 km/s
True Right ascension
00h 00m 00s
True Declination
0° 43' 03"
Sunlit
Object was in daylight at epoch
Visualization orbit readout
Latitude
Unknown
Longitude
Unknown
Altitude
Unknown
Speed
Unknown
Apparent Right ascension
Unknown
Apparent Declination
Unknown
Sunlit
N/A
Visualization observer readout
Local Sidereal Time
06:00:32
Azimuth
Unknown
Elevation
Unknown
Doppler factor
Unknown
Orbital elements
Apogee altitude
35,857.523 km
Perigee altitude
35,535.936 km
Semi-major axis
42,074.867 km
Eccentricity
0.00382
Inclination
0.8513°
RAAN
59.3542°
Arg. of periapsis
341.2122°
True anomaly
319.45505°
Mean anomaly
319.7391°
Eccentric anomaly
319.59718°
Mean motion
0.25148 °/min
Orbital period
1,431.51 mins
BSTAR
0
Loading maneuver chart data...
Computing Atmospheric mass density...
Loading historical data...
Loading historical data...
Loading historical data...
Loading historical data...
Loading historical data...
Loading historical data...
Loading historical data...

Documentation

Showing up to 5 results
|